Pontiac, MI

9:25 AM EDT on September 24, 2017 (GMT -0400)
Oakland County International

Weather History for KPTK - February, 2014

Change the Weather History Date:

Thursday, February 13, 2014

  Actual Average Record
Temperature  
Mean Temperature 20 °F -  
Max Temperature 28 °F 31 °F 46 °F (2011)
Min Temperature 12 °F 18 °F -5 °F (2015)
Degree Days  
Heating Degree Days 45    
Moisture  
Dew Point 9 °F    
Average Humidity 61    
Maximum Humidity 81    
Minimum Humidity 38    
Precipitation  
Precipitation 0.00 in - - ()
Snow  
Snow 0.00 in - - ()
Snow Depth 17.00 in    
Sea Level Pressure  
Sea Level Pressure 29.82 in    
Wind  
Wind Speed 4 mph (SE)    
Max Wind Speed 12 mph    
Max Gust Speed -    
Visibility 9 miles    
Events Snow    
Averages and records for this station are not official NWS values.
T = Trace of Precipitation, MM = Missing Value Source: NWS Daily Summary

Daily Weather History Graph

Daily Weather History Graph

Search for Another Location

Airport or City:

Trip Planner

Search our weather history database for the weather conditions in past years. The results will help you decide how hot, cold, wet, or windy it might be!

Date:

Astronomy

Feb. 13, 2014 Rise Set
Actual Time 7:33 AM EST 6:02 PM EST
Civil Twilight 7:04 AM EST 6:32 PM EST
Nautical Twilight 6:31 AM EST 7:05 PM EST
Astronomical Twilight 5:58 AM EST 7:37 PM EST
Moon 5:10 PM EST (2/13) 6:26 AM EST (2/13)
Length of Visible Light 11h 27m
Length of Day
10h 29m
Waxing Gibbous, 98% of the Moon is Illuminated
Feb 13
Waxing Gibbous
Feb 14
Full
Feb 22
Last Quarter
Mar 1
New
Mar 8
First Quarter

Hourly Weather History & Observations

Time (EST) Temp. Windchill Dew Point Humidity Pressure Visibility Wind Dir Wind Speed Gust Speed Precip Events Conditions
12:53 AM 17.1 °F - 6.1 °F 62% 30.09 in 10.0 mi Calm Calm - N/A   Overcast
1:53 AM 17.1 °F 8.7 °F 9.0 °F 71% 30.08 in 7.0 mi SE 5.8 mph - N/A   Overcast
2:53 AM 17.1 °F - 10.0 °F 74% 30.06 in 6.0 mi Calm Calm - N/A   Haze
3:53 AM 17.1 °F 11.7 °F 10.0 °F 74% 30.03 in 6.0 mi NNW 3.5 mph - N/A   Haze
4:53 AM 18.0 °F - 10.0 °F 71% 30.03 in 7.0 mi Calm Calm - N/A   Overcast
5:53 AM 18.0 °F - 10.0 °F 71% 30.02 in 7.0 mi Calm Calm - N/A   Overcast
6:53 AM 16.0 °F 7.4 °F 9.0 °F 74% 30.00 in 6.0 mi SE 5.8 mph - N/A   Haze
7:53 AM 12.9 °F 5.2 °F 8.1 °F 81% 29.99 in 5.0 mi ESE 4.6 mph - N/A   Haze
8:53 AM 15.1 °F 9.4 °F 6.1 °F 68% 29.97 in 8.0 mi ENE 3.5 mph - N/A   Clear
9:53 AM 19.0 °F 12.3 °F 6.1 °F 57% 29.96 in 8.0 mi SE 4.6 mph - N/A   Scattered Clouds
10:53 AM 23.0 °F 17.0 °F 6.1 °F 48% 29.93 in 10.0 mi ESE 4.6 mph - N/A   Partly Cloudy
11:53 AM 27.0 °F 18.7 °F 7.0 °F 43% 29.88 in 10.0 mi SE 8.1 mph - N/A   Partly Cloudy
12:53 PM 28.0 °F 20.0 °F 7.0 °F 41% 29.84 in 10.0 mi SE 8.1 mph - N/A   Partly Cloudy
1:53 PM 28.9 °F 19.2 °F 6.1 °F 38% 29.78 in 10.0 mi SSE 11.5 mph - N/A   Mostly Cloudy
2:53 PM 28.9 °F 19.8 °F 7.0 °F 40% 29.76 in 10.0 mi SE 10.4 mph - N/A   Mostly Cloudy
3:53 PM 28.0 °F 19.3 °F 8.1 °F 43% 29.74 in 10.0 mi SE 9.2 mph - N/A   Mostly Cloudy
4:53 PM 27.0 °F 19.5 °F 9.0 °F 47% 29.73 in 10.0 mi SSE 6.9 mph - N/A   Mostly Cloudy
5:53 PM 25.0 °F 17.1 °F 10.0 °F 53% 29.70 in 10.0 mi SSE 6.9 mph - N/A   Overcast
6:53 PM 23.0 °F 13.1 °F 10.0 °F 58% 29.67 in 10.0 mi SE 9.2 mph - N/A   Overcast
7:53 PM 21.9 °F 12.5 °F 8.1 °F 55% 29.65 in 10.0 mi SE 8.1 mph - N/A   Overcast
8:48 PM 21.2 °F 12.6 °F 10.4 °F 63% 29.60 in 9.0 mi South 6.9 mph - 0.00 in Snow Light Snow
8:53 PM 21.9 °F 13.4 °F 10.0 °F 60% 29.65 in 9.0 mi SSE 6.9 mph - 0.00 in Snow Light Snow
9:11 PM 21.2 °F 12.6 °F 12.2 °F 68% 29.58 in 7.0 mi SSE 6.9 mph - 0.00 in Snow Light Snow
9:53 PM 19.9 °F 10.1 °F 12.9 °F 74% 29.60 in 9.0 mi SSE 8.1 mph - 0.00 in Snow Light Snow
10:53 PM 19.9 °F 11.1 °F 12.9 °F 74% 29.56 in 10.0 mi SE 6.9 mph - 0.00 in   Overcast
11:53 PM 19.9 °F 10.1 °F 12.0 °F 71% 29.52 in 10.0 mi SE 8.1 mph - N/A   Overcast